Regional Weather Roundup
Issued by NWS

Home | Current Version | Previous Version | Text Only | Print | Product List | Glossary On
Versions: 1 2 3 4 5 6 7 8 9 10 11 12 13 14 15 16 17 18 19 20 21 22 23 24 25 26 27 28 29 30 31 32 33 34 35 36 37 38 39 40 41 42 43 44 45 46 47 48 49 50
000
ASUS46 KLOX 020013
RWRCA

SOUTHERN CALIFORNIA WEATHER ROUNDUP
NATIONAL WEATHER SERVICE OXNARD CALIFORNIA
500 PM PDT SAT AUG 01 2015

NOTE: "FAIR" INDICATES FEW OR NO CLOUDS BELOW 12,000 FEET WITH NO
SIGNIFICANT WEATHER AND/OR OBSTRUCTIONS TO VISIBILITY.

  -  STATIONS PRECEEDED BY AN ASTERISK (*) ARE NOT NWS OR FAA
     STATIONS AND ARE NOT SUBJECT TO NWS AND FAA QUALITY CONTROL.

CAZ041-042-087-020100-
LA AND ORANGE COUNTY COASTAL AREAS


CITY           SKY/WX    TMP DP  RH WIND       PRES   REMARKS
L.A. DOWNTOWN  SUNNY     78  63  59 MISG      29.89F
L.A. AIRPORT   MOSUNNY   75  65  70 W12       29.90F
LONG BEACH     MOSUNNY   82  63  52 CALM      29.88F

CITY           SKY/WX    TMP DP  RH WIND       PRES   REMARKS
AVALON           N/A     72 N/A N/A MISG        N/A
FULLERTON      SUNNY     81  63  54 S8        29.88F
*GETTY CENTER    N/A     77  63  61 S9          N/A
HAWTHORNE      SUNNY     78  63  59 SW12      29.90F
*LOS ALAMITOS  FAIR      78  64  62 S10       29.89F
*REDONDO BEACH   N/A     77  65  65 SW5       29.91S
SANTA ANA      MOSUNNY   76  64  66 SW8G18    29.90S
STA MONICA APT SUNNY     74  65  73 SW12      29.90F
TORRANCE       MOSUNNY   79  64  61 NW17      29.90F

$$

CAZ547-548-048-020100-
LA COUNTY VALLEYS AND INLAND EMPIRE


CITY           SKY/WX    TMP DP  RH WIND       PRES   REMARKS
BURBANK        SUNNY     84  62  47 S10       29.89S
VAN NUYS       SUNNY     88  61  40 SE10      29.88S

CITY           SKY/WX    TMP DP  RH WIND       PRES   REMARKS
CORONA AIRPORT PTCLDY    86  64  47 W13G20    29.86F
CHINO          MOSUNNY   89  61  38 W15G24    29.88S
MARCH AFB      MOSUNNY   89  60  38 NW14      29.90S
*NORTHRIDGE      N/A     88  57  35 SE5         N/A
ONTARIO        PTSUNNY   89  61  38 SW13G24   29.88S
*PASADENA        N/A     86  66  51 CALM        N/A
POMONA         SUNNY     88  59  37 W12       29.93S
RIVERSIDE      PTSUNNY   87  60  40 W10G17    29.88S
SAN BERNARDINO MOSUNNY   91  54  27 SW16      29.88S
*WHITEMAN AP   SUNNY     86  63  45 SE9       29.93S
*WOODLAND HILL   N/A     93  59  31 N5G10       N/A  HX  92

$$

CAZ054-055-020100-
LA AND SAN BERNARDINO COUNTY MOUNTAINS


CITY           SKY/WX    TMP DP  RH WIND       PRES   REMARKS
*BIG BEAR AIRP PTCLDY    77  37  24 SW5       30.26S
SANDBERG       SUNNY     89  31  12 SW12      30.13S

$$

CAZ028-029-059-060-099-020100-
ANTELOPE VALLEY AND SURROUNDING AREAS


CITY           SKY/WX    TMP DP  RH WIND       PRES   REMARKS
LANCASTER      SUNNY     98  44  15 W20G30    29.92F HX  94
PALMDALE       SUNNY     96  43  16 W21       29.93F HX  92

CITY           SKY/WX    TMP DP  RH WIND       PRES   REMARKS
29 PALMS       MOSUNNY   99  51  19 SE13      29.94F HX  96
BARSTOW/DAGGET MOSUNNY  105  38  10 NE9       29.85F HX  99
BISHOP         PTSUNNY   95  44  17 VRB3      29.97R HX  91
CHINA LAKE     SUNNY    103  29   7 S13       29.88F HX  96
EDWARDS AFB    PTSUNNY  101  27   7 W12       29.87F HX  94
MOJAVE         SUNNY     97  34  11 S13       29.95F HX  91
NEEDLES        PTSUNNY   98  58  26 N6        29.84F HX  97
VICTORVILLE    MOSUNNY   99  34  10 S14G22    29.95F HX  93

$$

CAZ039-040-020100-
VENTURA AND SANTA BARBARA COUNTY COAST


CITY           SKY/WX    TMP DP  RH WIND       PRES   REMARKS
CAMARILLO      SUNNY     78  61  55 W12       29.90F
OXNARD AIRPORT SUNNY     73  62  68 W17       29.90F
*POINT MUGU    MOSUNNY   76  63  64 W15       29.91F
SBA APT/GOLETA SUNNY     78  61  55 W9        29.89F
*SANTA BARBARA   N/A     80  60  49 N5        29.97F
*VENTURA         N/A     77  62  58 SW7       29.50S

$$

CAZ044-045-020100-
VENTURA COUNTY VALLEYS


CITY           SKY/WX    TMP DP  RH WIND       PRES   REMARKS
*SIMI VALLEY     N/A     83  65  52 W3        29.84F
*OJAI            N/A     94  63  35 W1        29.80F HX  95
*FILLMORE        N/A     85  66  52 SW3       29.79S

$$

CAZ053-020100-
VENTURA COUNTY MOUNTAINS


CITY           SKY/WX    TMP DP  RH WIND       PRES   REMARKS

$$

CAZ034-035-036-020100-
CENTRAL COAST AND SANTA YNEZ VALLEY


CITY           SKY/WX    TMP DP  RH WIND       PRES   REMARKS
SAN LUIS OBISP SUNNY     75  58  55 NW17      29.94S
SANTA MARIA    SUNNY     74  60  61 NW14      29.96S

CITY           SKY/WX    TMP DP  RH WIND       PRES   REMARKS
*CAL POLY SLO    N/A     73  63  68 SW8         N/A
*LOMPOC        SUNNY     75  57  53 W14       29.97S
*PISMO BEACH     N/A     67  62  84 W12       29.95S
*SANTA YNEZ    FAIR      81  55  41 W16       29.93S

$$

CAZ037-038-051-020100-
SAN LUIS OBISPO COUNTY INTERIOR AND CUYAMA VALLEY


CITY           SKY/WX    TMP DP  RH WIND       PRES   REMARKS
*CUYAMA          N/A     92  52  25 NW16      29.78S
PASO ROBLES    SUNNY     87  56  34 SW23      29.86F

$$

CAZ032-033-061-020100-
SOUTHERN DESERTS


CITY           SKY/WX    TMP DP  RH WIND       PRES   REMARKS
BLYTHE         MOSUNNY  103  58  22 E12       29.77F HX 102
IMPERIAL       MOSUNNY  109  50  14 E7        29.70F HX 106
PALM SPRINGS   MOSUNNY  110  45  11 E10       29.76F HX 105
THERMAL        MOSUNNY  109  43  10 SE10      29.68F HX 104

$$

ELSEWHERE ACROSS THE WESTERN UNITED STATES AND MEXICO


CITY           SKY/WX    TMP DP  RH WIND       PRES   REMARKS
DENVER, CO     PTSUNNY   93  34  12 N10       30.05F
GRAND CANYON,  CLOUDY    72  53  51 N3        30.26F
HONOLULU, HI   MOSUNNY   88  66  48 NE16G24   29.92F HX  90
KAHULUI, MAUI  PTSUNNY   86  70  58 NE22G29   29.94F HX  90
LAKE TAHOE, CA CLOUDY    76  52  43 SW6       30.22S
LAS VEGAS, NV  CLOUDY    84  59  42 N3        29.93F
MAMMOTH LAKES, PTSUNNY   72  48  43 NW10      30.29R
MEXICO CITY, M TSTM      68  50  52 NE14      30.23R
PHOENIX, AZ    MOSUNNY  103  59  23 SW9       29.75F HX 103
PORTLAND, OR   MOSUNNY   97  48  18 N10       29.83F HX  93
RENO, NV       CLOUDY    93  37  14 CALM      30.02S
SALT LAKE CITY PTSUNNY   93  31  11 NW10      30.00F
SAN DIEGO, CA  PTSUNNY   75  61  61 W9        29.93S
SAN FRANCISCO, MOSUNNY   73  57  57 W15G23    29.94F
SAN JOSE, CA   MOSUNNY   79  56  45 W14       29.92S
SEATTLE, WA    MOSUNNY   92  46  20 NW9       29.94F
TIJUANA, MEX   MOSUNNY   75  61  60 W16       29.94F

$$

STATION/POSITION TIME  TEMP    WIND        PRES    VSBY  WAVE
                       AIR SEA DIR/SP/G                  HT/PER
                 (UTC) (F)     (DEG/KT/KT) (MB)    (MI)  (FT/S)
POINT ARGUELLO B NOT AVBL
WEST SANTA BARBA 2350   65 66  310/ 21/ 25 1012.7F         4/14
POINT CONCEPTION NOT AVBL
EAST SANTA BARBA 0000   67 71  270/ 16/ 19 1013.1F
SANTA MONICA BAY 2350   70 75  280/ 10/ 12 1012.7F         2/13


USA.gov is the U.S. government's official web portal to all federal, state and local government web resources and services.